Hourly Data Report for June 10, 2021

TOBERMORY RCS
ONTARIO
Current Station Operator: ECCC - MSC

45°14'00.000" N
81°38'00.000" W
213.50 m
6128330
71767
TTR

Download Data

Hourly Data (June 2021)
Hourly Data Report for June 10, 2021
TIME
LST
Temp Definition
°C
Dew Point Definition
°C
Rel Hum Definition
%
Precip. Amount Definition
mm

Wind Dir Definition
10's deg

Wind Spd Definition
km/h
Visibility Definition
km
Stn Press Definition
kPa
Hmdx Definition


Wind Chill Definition


Weather Definition


00:00 18.4 6.9 47 0.0 8 9   99.45     LegendNANA
01:00 17.1 7.6 54 0.0 8 8   99.42     LegendNANA
02:00 15.6 8.5 63 0.0 6 9   99.46     LegendNANA
03:00 15.7 7.9 60 0.0 7 9   99.39     LegendNANA
04:00 15.7 8.1 61 0.0 7 10   99.35     LegendNANA
05:00 15.8 8.3 61 0.0 8 8   99.31     LegendNANA
06:00 16.5 8.8 60 0.0 6 8   99.33     LegendNANA
07:00 17.8 9.8 60 0.0 6 8   99.36     LegendNANA
08:00 18.3 9.6 57 0.0 7 11   99.37     LegendNANA
09:00 20.6 8.9 47 0.0 10 20   99.33     LegendNANA
10:00 19.7 8.7 49 0.0 11 18   99.35     LegendNANA
11:00 20.9 9.0 47 0.0 11 19   99.33     LegendNANA
12:00 22.6 9.9 44 0.0 12 23   99.28     LegendNANA
13:00 23.0 10.0 44 0.0 9 14   99.27     LegendNANA
14:00 22.9 9.4 42 0.0 12 21   99.18     LegendNANA
15:00 24.8 10.5 41 0.0 11 15   99.08 26   LegendNANA
16:00 25.2 10.8 40 0.0 14 11   99.02 27   LegendNANA
17:00 26.0 11.3 40 0.0 15 10   98.94 28   LegendNANA
18:00 25.6 12.2 43 0.0 8 5   98.90 28   LegendNANA
19:00 22.8 12.0 50 0.0 9 6   98.91 25   LegendNANA
20:00 19.0 9.5 54 0.0 4 8   98.95     LegendNANA
21:00 15.6 11.8 78 0.0 6 13   98.98     LegendNANA
22:00 14.8 11.9 83 0.0 7 12   99.01     LegendNANA
23:00 14.6 12.1 85 0.0 8 12   98.96     LegendNANA

Notes on Data Quality.

Legend

  • E = Estimated
  • M = Missing
  • NA = Not Available*
  • [empty] = Indicates an unobserved value
Date modified: